DELTA 1 DEB, 10188

Orbit data source: Space-Track

DELTA 1 DEB, 10188 is space debris in LEO originally from a launch on Thu, 14 Jul 1977 UTC launched from the Air Force Eastern Test Range (AFETR). Debris objects in space refer to the collection of defunct objects orbiting the Earth. Examples of debris include non-operational satellites, rocket bodies, and fragments generated from explosions, collisions, or faulty payload assembly.

Loading next visibility...
Identifier
10188, 1977-065S
Orbit
LEO
Country
Flag of USUS
Related business
Manufacturer
Unknown
Mission
Spacecraft
Bus & Motor
Unknown
Mass
Unknown
Launch date (UTC)
1977-07-14 (49 years ago)
Launch vehicle
Unknown
Launch site
Air Force Eastern Test Range (AFETR)
Object type
Payload
Rocket body
Debris
Shape & HBR
Unknown shape, 0.6 m
Radar Cross Section
Medium (>0.1 m² and <1 m²)

Expand to show TLE details & history
Last TLE update: 9 hours ago

TLE from 9 hours ago
0 DELTA 1 DEB
1 10188U 77065S   26133.03021285  .00000696  00000-0  14732-3 0  9990
2 10188  29.0638 244.9875 0653077  34.8453 329.3150 13.68683836386802
Epoch: 2026-05-13T00:43Z
TLE epoch observation values (Epoch: 2026-05-13T00:43:30.390Z)
Latitude
-0.00003°
Longitude
3.31473°
Altitude
597.128 km
Speed
7.768 km/s
True Right ascension
16h 19m 56s
True Declination
0° 00' 00"
Sunlit
Object was in full shadow at epoch
Visualization orbit readout
Latitude
Unknown
Longitude
Unknown
Altitude
Unknown
Speed
Unknown
Apparent Right ascension
Unknown
Apparent Declination
Unknown
Sunlit
N/A
Visualization observer readout
Local Sidereal Time
18:21:12
Azimuth
Unknown
Elevation
Unknown
Doppler factor
Unknown
Orbital elements
Apogee altitude
1,490.569 km
Perigee altitude
525.801 km
Semi-major axis
7,386.322 km
Eccentricity
0.06531
Inclination
29.0638°
RAAN
244.9875°
Arg. of periapsis
34.8453°
True anomaly
325.21206°
Mean anomaly
329.315°
Eccentric anomaly
327.29312°
Mean motion
3.41901 °/min
Orbital period
105.29 mins
BSTAR
0.00014732
Loading maneuver chart data...
Computing Atmospheric mass density...

Documentation

Showing up to 5 results
|